DLH104 EDDM-MDPC

Flight info

Callsign DLH104
Flight time N/A
Altitude 38000
Route OLASO2E/08R OLASO Z714 PELOG UM164 LUPEN/N0478F370 DCT POGOL DCT LUVAL DCT ROTSI/N0481F380 DCT AMODO DCT COHPA UM729 RESMI UN491 OTOFE DCT ALUTA DCT TAKAS/M084F380 DCT OMOKO DCT 4730N02000W 4630N03000W 44N040W/M084F400 40N050W 31N060W DCT KOZIK DCT DUPAN DCT NUBUS DCT HANCY/N0480F400 DCT JANMA DCT KATOK KATOK1W
Aircraft A359/H-SDE2E3GHIJ3J4J5LM1ORWXY/LB1D1

Departure

Time 2026-05-01 08:31
Airport Munich Airport (EDDM)

Arrival

Time N/A
Airport Punta Cana International Airport (MDPC)
Time Latitude Longitude Altitude Speed Heading
2026-05-01 07:30 48.35411 11.79326 1482 ft 0 kts 271°
2026-05-01 08:14 48.35411 11.79327 1491 ft 1 kts 271°
2026-05-01 08:14 48.35411 11.79362 1488 ft 4 kts 271°
2026-05-01 08:15 48.35410 11.79396 1478 ft 2 kts 271°
2026-05-01 08:15 48.35430 11.79456 1476 ft 4 kts 185°
2026-05-01 08:15 48.35455 11.79454 1476 ft 4 kts 173°
2026-05-01 08:16 48.35471 11.79451 1480 ft 0 kts 173°
2026-05-01 08:21 48.35453 11.79454 1476 ft 5 kts 173°
2026-05-01 08:21 48.35395 11.79464 1478 ft 11 kts 173°
2026-05-01 08:21 48.35306 11.79479 1486 ft 12 kts 173°
2026-05-01 08:22 48.35226 11.79493 1481 ft 12 kts 173°
2026-05-01 08:22 48.35145 11.79507 1483 ft 12 kts 173°
2026-05-01 08:22 48.35063 11.79522 1476 ft 12 kts 173°
2026-05-01 08:22 48.34985 11.79536 1479 ft 11 kts 173°
2026-05-01 08:23 48.34916 11.79548 1476 ft 9 kts 173°
2026-05-01 08:23 48.34861 11.79557 1478 ft 8 kts 173°
2026-05-01 08:23 48.34797 11.79547 1478 ft 10 kts 207°
2026-05-01 08:23 48.34783 11.79454 1480 ft 10 kts 265°
2026-05-01 08:24 48.34774 11.79329 1483 ft 14 kts 263°
2026-05-01 08:24 48.34761 11.79159 1489 ft 19 kts 264°
2026-05-01 08:24 48.34745 11.78935 1488 ft 24 kts 264°
2026-05-01 08:24 48.34722 11.78664 1479 ft 27 kts 263°
2026-05-01 08:25 48.34701 11.78381 1479 ft 28 kts 263°
2026-05-01 08:25 48.34678 11.78090 1488 ft 28 kts 263°
2026-05-01 08:25 48.34655 11.77794 1488 ft 29 kts 263°
2026-05-01 08:25 48.34631 11.77494 1478 ft 29 kts 263°
2026-05-01 08:26 48.34609 11.77192 1484 ft 30 kts 264°
2026-05-01 08:26 48.34585 11.76884 1482 ft 30 kts 264°
2026-05-01 08:26 48.34561 11.76572 1482 ft 30 kts 263°
2026-05-01 08:26 48.34537 11.76257 1479 ft 30 kts 264°
2026-05-01 08:27 48.34513 11.75940 1482 ft 31 kts 263°
2026-05-01 08:27 48.34489 11.75625 1479 ft 26 kts 263°
2026-05-01 08:27 48.34475 11.75450 1487 ft 15 kts 263°
2026-05-01 08:27 48.34463 11.75291 1479 ft 16 kts 263°
2026-05-01 08:28 48.34451 11.75134 1491 ft 13 kts 261°
2026-05-01 08:28 48.34394 11.75060 1480 ft 12 kts 175°
2026-05-01 08:28 48.34311 11.75078 1491 ft 12 kts 172°
2026-05-01 08:28 48.34223 11.75094 1484 ft 13 kts 173°
2026-05-01 08:29 48.34135 11.75132 1480 ft 13 kts 151°
2026-05-01 08:29 48.34085 11.75239 1481 ft 11 kts 102°
2026-05-01 08:29 48.34087 11.75332 1487 ft 0 kts 84°
2026-05-01 08:30 48.34093 11.75418 1479 ft 32 kts 83°
2026-05-01 08:30 48.34143 11.76064 1480 ft 91 kts 83°
2026-05-01 08:30 48.34236 11.77269 1479 ft 140 kts 83°
2026-05-01 08:31 48.34368 11.78833 1876 ft 150 kts 82°
2026-05-01 08:31 48.34530 11.80390 2456 ft 155 kts 83°
2026-05-01 08:31 48.34685 11.82043 2898 ft 169 kts 82°
2026-05-01 08:31 48.34901 11.83857 3236 ft 184 kts 82°
2026-05-01 08:32 48.35130 11.85851 3546 ft 203 kts 83°
2026-05-01 08:32 48.35354 11.88048 3871 ft 221 kts 84°
2026-05-01 08:32 48.35510 11.90336 4557 ft 220 kts 89°
2026-05-01 08:32 48.35524 11.92664 5163 ft 224 kts 92°
2026-05-01 08:33 48.35417 11.95034 5761 ft 230 kts 102°
2026-05-01 08:33 48.34608 11.97050 6339 ft 237 kts 139°
2026-05-01 08:33 48.33253 11.98531 6938 ft 244 kts 141°
2026-05-01 08:33 48.31867 12.00051 7583 ft 247 kts 141°
2026-05-01 08:34 48.30471 12.01570 8269 ft 250 kts 144°
2026-05-01 08:34 48.28853 12.02646 8897 ft 261 kts 163°
2026-05-01 08:34 48.26977 12.02864 9292 ft 280 kts 176°
2026-05-01 08:34 48.24997 12.02745 9892 ft 288 kts 178°
2026-05-01 08:35 48.22973 12.02596 10535 ft 294 kts 178°
2026-05-01 08:35 48.20919 12.02320 10940 ft 309 kts 186°
2026-05-01 08:35 48.18833 12.01165 11117 ft 334 kts 209°
2026-05-01 08:35 48.17111 11.98702 11323 ft 356 kts 234°
2026-05-01 08:36 48.16122 11.95230 11695 ft 368 kts 258°
2026-05-01 08:36 48.16074 11.91402 12270 ft 370 kts 279°
2026-05-01 08:36 48.16495 11.87570 12962 ft 374 kts 279°
2026-05-01 08:36 48.16846 11.83685 13580 ft 379 kts 277°
2026-05-01 08:37 48.17098 11.79718 14211 ft 385 kts 275°
2026-05-01 08:37 48.17290 11.75684 14741 ft 390 kts 274°
2026-05-01 08:37 48.17447 11.71608 15279 ft 394 kts 274°
2026-05-01 08:37 48.17584 11.67492 15835 ft 398 kts 274°
2026-05-01 08:38 48.17712 11.63333 16362 ft 401 kts 273°
2026-05-01 08:38 48.17832 11.59184 16898 ft 405 kts 273°
2026-05-01 08:38 48.17950 11.54954 17465 ft 408 kts 273°
2026-05-01 08:38 48.18065 11.50699 17999 ft 412 kts 273°
2026-05-01 08:39 48.18180 11.46384 18569 ft 415 kts 273°
2026-05-01 08:39 48.18293 11.42032 19092 ft 419 kts 273°
2026-05-01 08:39 48.18405 11.37655 19621 ft 422 kts 273°
2026-05-01 08:39 48.18516 11.33242 20167 ft 424 kts 273°
2026-05-01 08:40 48.18735 11.24350 21213 ft 430 kts 273°
2026-05-01 08:40 48.18843 11.19849 21748 ft 433 kts 273°
2026-05-01 08:40 48.18948 11.15383 22254 ft 435 kts 273°
2026-05-01 08:41 48.19052 11.10857 22854 ft 436 kts 273°
2026-05-01 08:41 48.19157 11.06286 23340 ft 440 kts 273°
2026-05-01 08:41 48.19260 11.01679 23834 ft 443 kts 273°
2026-05-01 08:41 48.19362 10.97052 24284 ft 446 kts 273°
2026-05-01 08:42 48.19462 10.92392 24718 ft 448 kts 273°
2026-05-01 08:42 48.19562 10.87709 25145 ft 450 kts 273°
2026-05-01 08:42 48.19660 10.83000 25573 ft 453 kts 273°
2026-05-01 08:42 48.19756 10.78262 25994 ft 455 kts 273°
2026-05-01 08:43 48.19852 10.73512 26394 ft 457 kts 273°
2026-05-01 08:43 48.19945 10.68751 26901 ft 457 kts 273°
2026-05-01 08:43 48.20035 10.64017 27319 ft 459 kts 273°
2026-05-01 08:43 48.20126 10.59208 27708 ft 462 kts 273°
2026-05-01 08:44 48.20214 10.54384 28117 ft 464 kts 273°
2026-05-01 08:44 48.20301 10.49538 28501 ft 467 kts 273°
2026-05-01 08:44 48.20387 10.44654 28881 ft 469 kts 273°
2026-05-01 08:44 48.20470 10.39754 29255 ft 471 kts 273°
2026-05-01 08:45 48.20552 10.34819 29612 ft 474 kts 273°
2026-05-01 08:45 48.20606 10.29876 29925 ft 476 kts 270°
2026-05-01 08:45 48.20642 10.24921 30300 ft 476 kts 271°
2026-05-01 08:45 48.20691 10.19944 30588 ft 478 kts 271°
2026-05-01 08:46 48.20761 10.14937 30820 ft 480 kts 271°
2026-05-01 08:46 48.20860 10.09996 31045 ft 482 kts 272°
2026-05-01 08:46 48.20985 10.04949 31238 ft 484 kts 272°
2026-05-01 08:46 48.21126 9.99910 31452 ft 486 kts 273°
2026-05-01 08:47 48.21277 9.94814 31648 ft 487 kts 273°
2026-05-01 08:47 48.21429 9.89724 31860 ft 489 kts 273°
2026-05-01 08:47 48.21612 9.84627 32055 ft 490 kts 274°
2026-05-01 08:47 48.21833 9.79521 32283 ft 491 kts 274°
2026-05-01 08:48 48.22066 9.74406 32479 ft 492 kts 274°
2026-05-01 08:48 48.22321 9.69266 32619 ft 494 kts 276°
2026-05-01 08:48 48.22841 9.64176 32810 ft 493 kts 280°
2026-05-01 08:48 48.23447 9.59108 33023 ft 493 kts 281°
2026-05-01 08:49 48.24066 9.54106 33203 ft 494 kts 281°
2026-05-01 08:49 48.24705 9.49025 33451 ft 494 kts 281°
2026-05-01 08:49 48.25338 9.44001 33684 ft 493 kts 280°
2026-05-01 08:49 48.25941 9.38911 33935 ft 493 kts 279°
2026-05-01 08:50 48.26504 9.33824 34157 ft 492 kts 279°
2026-05-01 08:50 48.27043 9.28808 34369 ft 492 kts 278°
2026-05-01 08:50 48.27583 9.23737 34547 ft 492 kts 278°
2026-05-01 08:50 48.28125 9.18669 34734 ft 491 kts 278°
2026-05-01 08:51 48.28669 9.13608 34929 ft 490 kts 278°
2026-05-01 08:51 48.29213 9.08564 35113 ft 490 kts 278°
2026-05-01 08:51 48.29759 9.03504 35275 ft 489 kts 278°
2026-05-01 08:51 48.30302 8.98476 35542 ft 486 kts 278°
2026-05-01 08:52 48.30838 8.93479 35722 ft 485 kts 278°
2026-05-01 08:52 48.31375 8.88457 35846 ft 485 kts 278°
2026-05-01 08:52 48.31904 8.83515 35973 ft 486 kts 278°
2026-05-01 08:52 48.32438 8.78500 36102 ft 485 kts 278°
2026-05-01 08:53 48.32969 8.73487 36233 ft 485 kts 278°
2026-05-01 08:53 48.33498 8.68476 36357 ft 485 kts 278°
2026-05-01 08:53 48.34024 8.63469 36488 ft 485 kts 278°
2026-05-01 08:53 48.34548 8.58458 36614 ft 484 kts 277°
2026-05-01 08:54 48.35069 8.53459 36757 ft 484 kts 278°
2026-05-01 08:54 48.35587 8.48462 36849 ft 484 kts 277°
2026-05-01 08:54 48.36103 8.43461 36974 ft 483 kts 277°
2026-05-01 08:54 48.36617 8.38465 37121 ft 482 kts 277°
2026-05-01 08:55 48.37628 8.28552 37311 ft 482 kts 277°
2026-05-01 08:55 48.38636 8.18572 37482 ft 482 kts 277°
2026-05-01 08:56 48.39138 8.13581 37608 ft 481 kts 277°
2026-05-01 08:56 48.39635 8.08607 37694 ft 481 kts 277°
2026-05-01 08:56 48.40628 7.98631 37864 ft 481 kts 277°
2026-05-01 08:57 48.41608 7.88692 38053 ft 480 kts 276°
2026-05-01 08:57 48.42570 7.78817 38178 ft 480 kts 277°
2026-05-01 08:58 48.42934 7.73805 38292 ft 480 kts 270°
2026-05-01 08:58 48.42946 7.68772 38310 ft 480 kts 266°
2026-05-01 08:58 48.42699 7.58698 38316 ft 483 kts 265°
2026-05-01 08:59 48.42350 7.48585 38312 ft 483 kts 265°
2026-05-01 08:59 48.42014 7.38680 38309 ft 475 kts 265°
2026-05-01 09:00 48.41676 7.28700 38308 ft 477 kts 265°
2026-05-01 09:00 48.41329 7.18697 38299 ft 480 kts 265°
2026-05-01 09:01 48.40971 7.08623 38293 ft 483 kts 265°
2026-05-01 09:01 48.40604 6.98575 38282 ft 485 kts 264°
2026-05-01 09:02 48.40225 6.88419 38274 ft 486 kts 264°
2026-05-01 09:02 48.39839 6.78259 38275 ft 484 kts 264°
2026-05-01 09:03 48.39448 6.68202 38284 ft 484 kts 264°
2026-05-01 09:03 48.38912 6.58468 38282 ft 484 kts 262°
2026-05-01 09:04 48.38226 6.48398 38290 ft 484 kts 261°
2026-05-01 09:04 48.37547 6.38314 38291 ft 484 kts 261°
2026-05-01 09:05 48.36886 6.28229 38291 ft 484 kts 261°
2026-05-01 09:05 48.36231 6.18220 38292 ft 484 kts 261°
2026-05-01 09:06 48.35561 6.08110 38292 ft 484 kts 261°
2026-05-01 09:06 48.34888 5.98107 38292 ft 484 kts 261°
2026-05-01 09:07 48.34200 5.88009 38292 ft 487 kts 261°
2026-05-01 09:07 48.33498 5.77868 38284 ft 488 kts 260°
2026-05-01 09:08 48.32903 5.69365 38281 ft 488 kts 260°
2026-05-01 09:08 48.32189 5.59267 38269 ft 488 kts 260°
2026-05-01 09:09 48.31461 5.49089 38261 ft 490 kts 260°
2026-05-01 09:09 48.30721 5.38892 38263 ft 492 kts 259°
2026-05-01 09:10 48.29973 5.28727 38264 ft 492 kts 259°
2026-05-01 09:10 48.29212 5.18490 38266 ft 493 kts 259°
2026-05-01 09:11 48.28573 5.08251 38262 ft 494 kts 263°
2026-05-01 09:11 48.28307 4.97929 38258 ft 493 kts 264°
2026-05-01 09:12 48.28064 4.87625 38257 ft 493 kts 263°
2026-05-01 09:12 48.27753 4.77353 38251 ft 493 kts 263°
2026-05-01 09:13 48.27411 4.67125 38242 ft 493 kts 263°
2026-05-01 09:13 48.27887 4.56828 38260 ft 495 kts 272°
2026-05-01 09:14 48.28781 4.46631 38256 ft 495 kts 274°
2026-05-01 09:14 48.29741 4.36390 38259 ft 495 kts 274°
2026-05-01 09:15 48.30689 4.26158 38262 ft 495 kts 273°
2026-05-01 09:15 48.31615 4.15915 38264 ft 494 kts 273°
2026-05-01 09:16 48.32526 4.05663 38265 ft 494 kts 273°
2026-05-01 09:17 48.33861 3.90454 38264 ft 494 kts 273°
2026-05-01 09:17 48.35189 3.75095 38259 ft 494 kts 272°
2026-05-01 09:18 48.36495 3.59737 38245 ft 494 kts 272°
2026-05-01 09:19 48.37779 3.44407 38245 ft 493 kts 272°
2026-05-01 09:20 48.39045 3.29049 38246 ft 493 kts 272°
2026-05-01 09:21 48.40702 3.08540 38240 ft 494 kts 272°
2026-05-01 09:21 48.42476 2.93258 38247 ft 496 kts 281°
2026-05-01 09:22 48.46250 2.73309 38238 ft 496 kts 282°
2026-05-01 09:23 48.49119 2.58297 38250 ft 496 kts 282°
2026-05-01 09:24 48.51954 2.43261 38235 ft 497 kts 281°
2026-05-01 09:25 48.55694 2.23220 38236 ft 497 kts 281°
2026-05-01 09:26 48.58207 2.08041 38238 ft 496 kts 277°
2026-05-01 09:26 48.60209 1.92679 38238 ft 497 kts 277°
2026-05-01 09:27 48.62285 1.77363 38229 ft 498 kts 277°
2026-05-01 09:28 48.63695 1.67104 38231 ft 497 kts 277°
2026-05-01 09:28 48.65094 1.56870 38223 ft 497 kts 277°
2026-05-01 09:29 48.67156 1.41510 38213 ft 497 kts 277°
2026-05-01 09:30 48.69196 1.26177 38221 ft 496 kts 277°
2026-05-01 09:30 48.71210 1.10859 38220 ft 494 kts 277°
2026-05-01 09:31 48.72540 1.00647 38204 ft 494 kts 276°
2026-05-01 09:32 48.74520 0.85332 38219 ft 494 kts 276°
2026-05-01 09:32 48.76476 0.70107 38216 ft 492 kts 276°
2026-05-01 09:33 48.77775 0.59915 38217 ft 492 kts 276°
2026-05-01 09:34 48.79209 0.44527 38215 ft 490 kts 271°
2026-05-01 09:34 48.80175 0.29130 38200 ft 490 kts 270°
2026-05-01 09:35 48.81109 0.13698 38201 ft 490 kts 270°
2026-05-01 09:36 48.81727 0.03412 38209 ft 490 kts 271°
2026-05-01 09:36 48.82338 -0.06870 38200 ft 488 kts 271°
2026-05-01 09:37 48.82937 -0.17095 38202 ft 486 kts 270°
2026-05-01 09:37 48.83811 -0.32422 38201 ft 485 kts 270°
2026-05-01 09:38 48.84618 -0.47747 38199 ft 486 kts 270°
2026-05-01 09:39 48.85407 -0.63028 38223 ft 486 kts 270°
2026-05-01 09:39 48.85928 -0.73271 38203 ft 486 kts 270°
2026-05-01 09:40 48.86691 -0.88622 38211 ft 485 kts 270°
2026-05-01 09:41 48.87185 -0.98776 38210 ft 483 kts 270°
2026-05-01 09:41 48.87911 -1.14062 38213 ft 483 kts 270°
2026-05-01 09:42 48.88381 -1.24185 38225 ft 482 kts 270°
2026-05-01 09:43 48.89295 -1.44513 38226 ft 480 kts 270°
2026-05-01 09:43 48.89738 -1.54629 38228 ft 479 kts 270°
2026-05-01 09:44 48.90391 -1.69816 38234 ft 479 kts 269°
2026-05-01 09:45 48.90815 -1.79872 38238 ft 480 kts 269°
2026-05-01 09:45 48.91433 -1.95074 38234 ft 479 kts 269°
2026-05-01 09:46 48.91833 -2.05193 38231 ft 479 kts 269°
2026-05-01 09:46 48.92225 -2.15323 38228 ft 479 kts 269°
2026-05-01 09:47 48.92610 -2.25441 38227 ft 479 kts 269°
2026-05-01 09:47 48.92984 -2.35527 38228 ft 480 kts 269°
2026-05-01 09:48 48.93350 -2.45669 38233 ft 480 kts 269°
2026-05-01 09:48 48.93709 -2.55811 38236 ft 480 kts 268°
2026-05-01 09:49 48.94052 -2.65961 38240 ft 480 kts 268°
2026-05-01 09:49 48.94382 -2.76032 38235 ft 479 kts 268°
2026-05-01 09:50 48.94707 -2.86169 38230 ft 479 kts 268°
2026-05-01 09:50 48.95024 -2.96303 38230 ft 479 kts 267°
2026-05-01 09:51 48.95333 -3.06454 38231 ft 479 kts 267°
2026-05-01 09:51 48.95633 -3.16580 38226 ft 479 kts 266°
2026-05-01 09:52 48.95921 -3.26652 38224 ft 479 kts 266°
2026-05-01 09:52 48.96202 -3.36789 38221 ft 479 kts 266°
2026-05-01 09:53 48.96474 -3.46903 38219 ft 479 kts 266°
2026-05-01 09:53 48.96694 -3.55332 38222 ft 479 kts 266°
2026-05-01 09:54 48.96950 -3.65459 38222 ft 479 kts 265°
2026-05-01 09:54 48.97197 -3.75609 38230 ft 479 kts 265°
2026-05-01 09:55 48.97436 -3.85758 38230 ft 479 kts 265°
2026-05-01 09:55 48.97665 -3.95874 38249 ft 479 kts 265°
2026-05-01 09:56 48.97885 -4.06016 38221 ft 479 kts 265°
2026-05-01 09:56 48.98097 -4.16164 38222 ft 479 kts 265°
2026-05-01 09:57 48.98299 -4.26291 38222 ft 479 kts 265°
2026-05-01 09:57 48.98493 -4.36419 38222 ft 479 kts 264°
2026-05-01 09:58 48.98676 -4.46495 38214 ft 478 kts 264°
2026-05-01 09:58 48.98853 -4.56591 38214 ft 477 kts 264°
2026-05-01 09:59 48.99021 -4.66711 38230 ft 477 kts 264°
2026-05-01 09:59 48.99179 -4.76832 38227 ft 478 kts 264°
2026-05-01 10:00 48.99329 -4.86959 38231 ft 478 kts 264°
2026-05-01 10:00 48.99470 -4.97081 38214 ft 478 kts 264°
2026-05-01 10:01 48.99601 -5.07200 38212 ft 478 kts 264°
2026-05-01 10:01 48.99723 -5.17271 38227 ft 478 kts 264°
2026-05-01 10:02 48.99836 -5.27384 38222 ft 478 kts 264°
2026-05-01 10:02 48.99941 -5.37509 38222 ft 478 kts 263°
2026-05-01 10:03 49.00038 -5.47633 38215 ft 478 kts 263°
2026-05-01 10:03 49.00125 -5.57751 38215 ft 478 kts 263°
2026-05-01 10:04 49.00203 -5.67821 38207 ft 478 kts 263°
2026-05-01 10:04 49.00273 -5.77940 38215 ft 477 kts 263°
2026-05-01 10:05 49.00334 -5.88040 38213 ft 477 kts 263°
2026-05-01 10:05 49.00386 -5.98171 38209 ft 477 kts 263°
2026-05-01 10:06 49.00430 -6.08274 38206 ft 477 kts 263°
2026-05-01 10:06 49.00464 -6.18391 38215 ft 477 kts 263°
2026-05-01 10:07 49.00490 -6.28502 38203 ft 477 kts 263°
2026-05-01 10:07 49.00506 -6.38538 38198 ft 477 kts 262°
2026-05-01 10:08 49.00514 -6.53686 38197 ft 477 kts 262°
2026-05-01 10:09 49.00508 -6.63800 38208 ft 477 kts 262°
2026-05-01 10:09 49.00494 -6.73925 38192 ft 478 kts 262°
2026-05-01 10:10 49.00471 -6.84058 38190 ft 478 kts 262°
2026-05-01 10:10 49.00419 -6.99192 38191 ft 478 kts 262°
2026-05-01 10:11 49.00373 -7.09396 38193 ft 478 kts 262°
2026-05-01 10:11 49.00320 -7.19474 38180 ft 479 kts 262°
2026-05-01 10:12 49.00256 -7.29647 38182 ft 480 kts 262°
2026-05-01 10:13 49.00145 -7.44894 38180 ft 480 kts 262°
2026-05-01 10:13 49.00061 -7.55065 38174 ft 480 kts 262°
2026-05-01 10:14 48.99920 -7.70256 38169 ft 480 kts 262°
2026-05-01 10:14 48.99814 -7.80426 38167 ft 480 kts 262°
2026-05-01 10:15 48.99700 -7.90593 38163 ft 480 kts 262°
2026-05-01 10:15 48.99577 -8.00758 38167 ft 480 kts 262°
2026-05-01 10:16 48.99380 -8.10926 38168 ft 479 kts 261°
2026-05-01 10:17 48.98970 -8.26090 38164 ft 479 kts 261°
2026-05-01 10:17 48.98565 -8.41318 38165 ft 479 kts 261°
2026-05-01 10:18 48.98154 -8.56553 38156 ft 479 kts 261°
2026-05-01 10:19 48.97870 -8.66632 38154 ft 479 kts 261°
2026-05-01 10:19 48.97576 -8.76760 38149 ft 480 kts 261°
2026-05-01 10:20 48.97115 -8.92001 38153 ft 480 kts 261°
2026-05-01 10:20 48.96796 -9.02178 38144 ft 480 kts 261°
2026-05-01 10:21 48.96304 -9.17355 38146 ft 480 kts 261°
2026-05-01 10:22 48.95790 -9.32585 38129 ft 480 kts 260°
2026-05-01 10:23 48.95256 -9.47815 38145 ft 480 kts 260°
2026-05-01 10:23 48.94703 -9.63029 38135 ft 480 kts 260°
2026-05-01 10:24 48.93936 -9.83245 38126 ft 480 kts 261°
2026-05-01 10:25 48.93133 -10.03517 38122 ft 480 kts 260°
2026-05-01 10:26 48.92717 -10.13652 38138 ft 480 kts 260°
2026-05-01 10:27 48.91858 -10.33932 38113 ft 480 kts 261°
2026-05-01 10:28 48.91191 -10.49128 38112 ft 480 kts 260°
2026-05-01 10:28 48.90504 -10.64324 38108 ft 480 kts 260°
2026-05-01 10:29 48.89799 -10.79467 38105 ft 480 kts 260°
2026-05-01 10:30 48.88826 -10.99728 38102 ft 480 kts 260°
2026-05-01 10:31 48.87817 -11.19995 38101 ft 482 kts 260°
2026-05-01 10:32 48.87038 -11.35149 38102 ft 482 kts 260°
2026-05-01 10:33 48.85964 -11.55454 38094 ft 483 kts 260°
2026-05-01 10:34 48.85130 -11.70746 38092 ft 484 kts 260°
2026-05-01 10:34 48.84564 -11.80928 38092 ft 484 kts 260°
2026-05-01 10:35 48.83848 -11.96212 38085 ft 486 kts 267°
2026-05-01 10:35 48.84595 -12.06380 38102 ft 486 kts 269°
2026-05-01 10:36 48.84250 -12.16498 38089 ft 477 kts 253°
2026-05-01 10:36 48.83324 -12.21313 38089 ft 475 kts 244°
2026-05-01 10:37 48.81307 -12.30876 38099 ft 478 kts 252°
2026-05-01 10:37 48.79139 -12.45749 38089 ft 481 kts 254°
2026-05-01 10:38 48.77820 -12.55588 38089 ft 481 kts 255°
2026-05-01 10:38 48.76493 -12.65546 38088 ft 481 kts 255°
2026-05-01 10:39 48.75380 -12.73804 38088 ft 481 kts 254°
2026-05-01 10:39 48.74032 -12.83710 38085 ft 479 kts 254°
2026-05-01 10:40 48.72677 -12.93582 38089 ft 478 kts 254°
2026-05-01 10:40 48.71313 -13.03454 38089 ft 478 kts 254°
2026-05-01 10:41 48.69941 -13.13325 38086 ft 478 kts 254°
2026-05-01 10:42 48.67874 -13.28076 38089 ft 482 kts 254°
2026-05-01 10:42 48.66466 -13.38027 38089 ft 484 kts 254°
2026-05-01 10:43 48.65048 -13.47989 38089 ft 484 kts 254°
2026-05-01 10:43 48.63621 -13.57949 38089 ft 484 kts 254°
2026-05-01 10:44 48.62188 -13.67895 38089 ft 484 kts 253°
2026-05-01 10:44 48.60756 -13.77762 38089 ft 484 kts 253°
2026-05-01 10:45 48.59304 -13.87699 38094 ft 484 kts 253°
2026-05-01 10:45 48.57846 -13.97618 38094 ft 484 kts 253°
2026-05-01 10:46 48.56375 -14.07551 38088 ft 484 kts 253°
2026-05-01 10:46 48.54898 -14.17476 38095 ft 485 kts 253°
2026-05-01 10:47 48.53420 -14.27338 38097 ft 485 kts 253°
2026-05-01 10:47 48.51921 -14.37277 38089 ft 485 kts 253°
2026-05-01 10:48 48.50416 -14.47194 38093 ft 485 kts 253°
2026-05-01 10:48 48.48897 -14.57138 38101 ft 487 kts 253°
2026-05-01 10:49 48.47376 -14.67028 38092 ft 487 kts 253°
2026-05-01 10:49 48.45839 -14.76969 38093 ft 487 kts 253°
2026-05-01 10:50 48.44295 -14.86898 38102 ft 487 kts 253°
2026-05-01 10:50 48.42739 -14.96841 38101 ft 487 kts 253°
2026-05-01 10:51 48.41186 -15.06705 38098 ft 487 kts 253°
2026-05-01 10:51 48.39610 -15.16651 38102 ft 487 kts 253°
2026-05-01 10:52 48.38027 -15.26575 38100 ft 487 kts 253°
2026-05-01 10:52 48.36440 -15.36473 38100 ft 486 kts 253°
2026-05-01 10:53 48.34855 -15.46300 38104 ft 487 kts 253°
2026-05-01 10:53 48.33251 -15.56183 38108 ft 487 kts 253°
2026-05-01 10:54 48.31637 -15.66070 38108 ft 486 kts 253°
2026-05-01 10:54 48.30018 -15.75931 38109 ft 484 kts 253°
2026-05-01 10:55 48.28398 -15.85749 38113 ft 484 kts 253°
2026-05-01 10:55 48.26769 -15.95553 38112 ft 484 kts 253°
2026-05-01 10:56 48.25130 -16.05362 38113 ft 484 kts 253°
2026-05-01 10:56 48.23490 -16.15112 38125 ft 485 kts 254°
2026-05-01 10:57 48.21831 -16.24936 38124 ft 485 kts 253°
2026-05-01 10:57 48.20163 -16.34760 38127 ft 485 kts 253°
2026-05-01 10:58 48.18505 -16.44470 38128 ft 485 kts 253°
2026-05-01 10:58 48.16814 -16.54311 38140 ft 486 kts 253°
2026-05-01 10:59 48.15115 -16.64127 38135 ft 485 kts 253°
2026-05-01 10:59 48.13416 -16.73905 38134 ft 485 kts 253°
2026-05-01 11:00 48.11712 -16.83676 38142 ft 486 kts 253°
2026-05-01 11:00 48.10003 -16.93379 38151 ft 485 kts 253°
2026-05-01 11:01 48.08274 -17.03161 38142 ft 486 kts 253°
2026-05-01 11:01 48.06537 -17.12935 38161 ft 486 kts 254°
2026-05-01 11:02 48.04797 -17.22696 38161 ft 486 kts 253°
2026-05-01 11:02 48.03040 -17.32476 38159 ft 487 kts 253°
2026-05-01 11:03 48.01274 -17.42254 38155 ft 487 kts 253°
2026-05-01 11:03 47.99497 -17.52041 38157 ft 488 kts 253°
2026-05-01 11:04 47.97715 -17.61800 38165 ft 487 kts 253°
2026-05-01 11:04 47.95938 -17.71495 38163 ft 487 kts 253°
2026-05-01 11:05 47.94139 -17.81247 38169 ft 488 kts 253°
2026-05-01 11:05 47.92332 -17.90994 38179 ft 487 kts 253°
2026-05-01 11:06 47.90517 -18.00738 38176 ft 487 kts 252°
2026-05-01 11:06 47.88691 -18.10486 38184 ft 488 kts 253°
2026-05-01 11:07 47.85946 -18.25050 38185 ft 489 kts 252°
2026-05-01 11:07 47.84099 -18.34788 38183 ft 489 kts 253°
2026-05-01 11:08 47.82241 -18.44526 38187 ft 489 kts 253°
2026-05-01 11:09 47.79423 -18.59202 38193 ft 493 kts 252°
2026-05-01 11:09 47.77543 -18.68930 38200 ft 493 kts 252°
2026-05-01 11:10 47.74686 -18.83613 38201 ft 493 kts 252°
2026-05-01 11:10 47.72772 -18.93401 38206 ft 495 kts 252°
2026-05-01 11:11 47.70835 -19.03251 38210 ft 496 kts 252°
2026-05-01 11:11 47.68889 -19.13084 38217 ft 496 kts 252°
2026-05-01 11:12 47.66942 -19.22880 38208 ft 493 kts 251°
2026-05-01 11:12 47.65007 -19.32570 38213 ft 493 kts 252°
2026-05-01 11:13 47.63044 -19.42355 38219 ft 493 kts 252°
2026-05-01 11:13 47.61080 -19.52097 38218 ft 493 kts 252°
2026-05-01 11:14 47.59114 -19.61792 38219 ft 493 kts 251°
2026-05-01 11:14 47.57131 -19.71530 38225 ft 495 kts 251°
2026-05-01 11:15 47.55128 -19.81311 38227 ft 495 kts 252°
2026-05-01 11:15 47.53133 -19.91010 38227 ft 495 kts 251°
2026-05-01 11:16 47.51361 -20.00815 38213 ft 494 kts 259°
2026-05-01 11:16 47.50602 -20.10951 38237 ft 493 kts 263°
2026-05-01 11:17 47.50033 -20.20989 38233 ft 493 kts 264°
2026-05-01 11:17 47.49479 -20.31118 38241 ft 494 kts 264°
2026-05-01 11:18 47.48902 -20.41240 38238 ft 494 kts 264°
2026-05-01 11:18 47.48305 -20.51379 38246 ft 495 kts 263°
2026-05-01 11:19 47.47692 -20.61562 38247 ft 496 kts 263°
2026-05-01 11:19 47.47072 -20.71718 38246 ft 496 kts 263°
2026-05-01 11:20 47.46447 -20.81809 38255 ft 496 kts 263°
2026-05-01 11:20 47.45810 -20.91961 38254 ft 496 kts 263°
2026-05-01 11:21 47.45162 -21.02144 38252 ft 496 kts 263°
2026-05-01 11:21 47.44510 -21.12251 38261 ft 497 kts 263°
2026-05-01 11:22 47.43846 -21.22404 38258 ft 496 kts 263°
2026-05-01 11:22 47.43174 -21.32549 38267 ft 496 kts 263°
2026-05-01 11:23 47.42491 -21.42714 38256 ft 497 kts 263°
2026-05-01 11:23 47.41798 -21.52881 38271 ft 497 kts 263°
2026-05-01 11:24 47.41097 -21.63038 38278 ft 497 kts 263°
2026-05-01 11:25 47.40149 -21.76571 38271 ft 497 kts 263°
2026-05-01 11:25 47.39061 -21.91822 38267 ft 498 kts 263°
2026-05-01 11:26 47.37951 -22.07099 38277 ft 500 kts 263°
2026-05-01 11:27 47.37197 -22.17303 38269 ft 501 kts 263°
2026-05-01 11:27 47.36434 -22.27525 38284 ft 502 kts 262°
2026-05-01 11:28 47.35664 -22.37698 38278 ft 502 kts 262°
2026-05-01 11:28 47.34880 -22.47936 38290 ft 502 kts 262°
2026-05-01 11:29 47.33687 -22.63282 38296 ft 502 kts 262°
2026-05-01 11:30 47.32472 -22.78643 38292 ft 502 kts 262°
2026-05-01 11:30 47.31658 -22.88802 38288 ft 502 kts 262°
2026-05-01 11:31 47.30827 -22.99044 38285 ft 502 kts 262°
2026-05-01 11:31 47.29987 -23.09285 38291 ft 503 kts 262°
2026-05-01 11:32 47.29141 -23.19484 38296 ft 503 kts 262°
2026-05-01 11:32 47.28283 -23.29710 38298 ft 503 kts 262°
2026-05-01 11:33 47.27415 -23.39944 38291 ft 503 kts 262°
2026-05-01 11:33 47.26539 -23.50180 38305 ft 503 kts 262°
2026-05-01 11:34 47.25659 -23.60341 38308 ft 503 kts 262°
2026-05-01 11:34 47.24764 -23.70568 38304 ft 504 kts 262°
2026-05-01 11:35 47.23858 -23.80814 38304 ft 505 kts 262°
2026-05-01 11:35 47.22941 -23.91074 38310 ft 505 kts 262°
2026-05-01 11:36 47.22016 -24.01325 38316 ft 505 kts 262°
2026-05-01 11:36 47.21086 -24.11511 38316 ft 505 kts 262°
2026-05-01 11:37 47.20141 -24.21760 38313 ft 505 kts 262°
2026-05-01 11:37 47.19189 -24.31994 38317 ft 505 kts 262°
2026-05-01 11:38 47.18227 -24.42237 38320 ft 505 kts 261°
2026-05-01 11:38 47.17255 -24.52475 38316 ft 505 kts 261°
2026-05-01 11:39 47.16273 -24.62718 38315 ft 505 kts 261°
2026-05-01 11:39 47.15288 -24.72893 38326 ft 506 kts 261°
2026-05-01 11:40 47.14289 -24.83126 38322 ft 506 kts 261°
2026-05-01 11:40 47.13281 -24.93351 38323 ft 506 kts 261°
2026-05-01 11:41 47.12263 -25.03574 38324 ft 506 kts 261°
2026-05-01 11:41 47.11236 -25.13795 38332 ft 506 kts 261°
2026-05-01 11:42 47.10207 -25.23947 38322 ft 506 kts 261°
2026-05-01 11:42 47.09162 -25.34157 38313 ft 506 kts 261°
2026-05-01 11:43 47.08106 -25.44372 38326 ft 505 kts 261°
2026-05-01 11:43 47.07048 -25.54524 38332 ft 506 kts 261°
2026-05-01 11:44 47.05438 -25.69814 38331 ft 506 kts 261°
2026-05-01 11:44 47.04352 -25.80009 38334 ft 506 kts 261°
2026-05-01 11:45 47.03261 -25.90164 38326 ft 506 kts 261°
2026-05-01 11:45 47.02156 -26.00354 38337 ft 506 kts 261°
2026-05-01 11:46 47.01051 -26.10461 38337 ft 506 kts 261°
2026-05-01 11:46 46.99930 -26.20633 38341 ft 506 kts 261°
2026-05-01 11:47 46.98798 -26.30819 38326 ft 506 kts 261°
2026-05-01 11:47 46.97656 -26.41003 38341 ft 506 kts 260°
2026-05-01 11:48 46.96505 -26.51186 38340 ft 506 kts 260°
2026-05-01 11:48 46.95353 -26.61293 38340 ft 506 kts 260°
2026-05-01 11:49 46.94185 -26.71452 38328 ft 506 kts 260°
2026-05-01 11:49 46.93008 -26.81613 38344 ft 506 kts 260°
2026-05-01 11:50 46.91822 -26.91775 38344 ft 507 kts 260°
2026-05-01 11:50 46.90626 -27.01942 38350 ft 507 kts 260°
2026-05-01 11:51 46.89420 -27.12094 38330 ft 507 kts 260°
2026-05-01 11:51 46.88206 -27.22245 38350 ft 507 kts 260°
2026-05-01 11:52 46.86991 -27.32339 38349 ft 507 kts 260°
2026-05-01 11:52 46.85755 -27.42515 38355 ft 507 kts 260°
2026-05-01 11:53 46.84520 -27.52604 38355 ft 507 kts 259°
2026-05-01 11:53 46.83268 -27.62755 38354 ft 507 kts 259°
2026-05-01 11:54 46.82008 -27.72895 38356 ft 507 kts 259°
2026-05-01 11:54 46.80738 -27.83037 38355 ft 507 kts 259°
2026-05-01 11:55 46.79465 -27.93129 38354 ft 507 kts 259°
2026-05-01 11:55 46.78178 -28.03257 38360 ft 508 kts 259°
2026-05-01 11:56 46.76879 -28.13399 38359 ft 508 kts 259°
2026-05-01 11:56 46.75572 -28.23536 38360 ft 508 kts 259°
2026-05-01 11:57 46.74255 -28.33671 38360 ft 508 kts 259°
2026-05-01 11:57 46.72928 -28.43813 38360 ft 509 kts 259°
2026-05-01 11:58 46.71604 -28.53863 38360 ft 509 kts 259°
2026-05-01 11:59 46.69576 -28.69097 38360 ft 509 kts 258°
2026-05-01 11:59 46.68217 -28.79232 38357 ft 509 kts 258°
2026-05-01 12:00 46.66164 -28.94395 38366 ft 509 kts 258°
2026-05-01 12:01 46.64098 -29.09499 38369 ft 509 kts 258°
2026-05-01 12:01 46.62704 -29.19609 38360 ft 509 kts 258°
2026-05-01 12:02 46.61302 -29.29701 38363 ft 509 kts 257°
2026-05-01 12:02 46.59889 -29.39794 38366 ft 509 kts 257°
2026-05-01 12:03 46.58478 -29.49816 38366 ft 509 kts 257°
2026-05-01 12:03 46.57049 -29.59896 38366 ft 509 kts 257°
2026-05-01 12:04 46.55612 -29.69965 38367 ft 508 kts 257°
2026-05-01 12:04 46.54164 -29.80037 38369 ft 508 kts 257°
2026-05-01 12:05 46.52711 -29.90088 38368 ft 508 kts 257°
2026-05-01 12:05 46.50467 -30.05090 38374 ft 508 kts 254°
2026-05-01 12:06 46.48502 -30.14952 38372 ft 509 kts 251°
2026-05-01 12:06 46.46428 -30.24779 38372 ft 510 kts 252°
2026-05-01 12:07 46.44402 -30.34649 38365 ft 510 kts 252°
2026-05-01 12:07 46.42430 -30.44443 38371 ft 509 kts 252°
2026-05-01 12:08 46.40445 -30.54314 38371 ft 509 kts 252°
2026-05-01 12:08 46.38451 -30.64174 38371 ft 508 kts 252°
2026-05-01 12:09 46.36464 -30.73938 38369 ft 508 kts 251°
2026-05-01 12:09 46.34456 -30.83746 38368 ft 507 kts 251°
2026-05-01 12:10 46.31431 -30.98426 38368 ft 507 kts 251°
2026-05-01 12:11 46.28389 -31.13091 38374 ft 507 kts 250°
2026-05-01 12:11 46.26366 -31.22788 38373 ft 506 kts 250°
2026-05-01 12:12 46.24326 -31.32523 38370 ft 506 kts 250°
2026-05-01 12:12 46.22277 -31.42249 38370 ft 506 kts 250°
2026-05-01 12:13 46.20223 -31.51950 38370 ft 505 kts 250°
2026-05-01 12:13 46.18161 -31.61638 38370 ft 504 kts 250°
2026-05-01 12:14 46.16446 -31.69672 38371 ft 504 kts 250°
2026-05-01 12:14 46.14382 -31.79287 38368 ft 504 kts 250°
2026-05-01 12:15 46.12303 -31.88938 38368 ft 504 kts 249°
2026-05-01 12:15 46.10213 -31.98590 38365 ft 504 kts 249°
2026-05-01 12:16 46.08116 -32.08228 38367 ft 503 kts 249°
2026-05-01 12:16 46.06014 -32.17848 38365 ft 503 kts 249°
2026-05-01 12:17 46.03917 -32.27400 38365 ft 503 kts 249°
2026-05-01 12:17 46.01801 -32.36994 38366 ft 503 kts 249°
2026-05-01 12:18 45.99676 -32.46584 38362 ft 502 kts 248°
2026-05-01 12:18 45.97546 -32.56157 38360 ft 502 kts 248°
2026-05-01 12:19 45.95407 -32.65722 38362 ft 502 kts 248°
2026-05-01 12:19 45.93273 -32.75225 38361 ft 502 kts 248°
2026-05-01 12:20 45.91121 -32.84762 38358 ft 502 kts 248°
2026-05-01 12:20 45.88957 -32.94313 38359 ft 501 kts 248°
2026-05-01 12:21 45.86797 -33.03804 38358 ft 499 kts 248°
2026-05-01 12:21 45.84634 -33.13267 38359 ft 498 kts 248°
2026-05-01 12:22 45.82479 -33.22651 38357 ft 498 kts 248°
2026-05-01 12:22 45.80299 -33.32104 38354 ft 498 kts 247°
2026-05-01 12:23 45.78118 -33.41521 38354 ft 497 kts 247°
2026-05-01 12:23 45.75934 -33.50910 38354 ft 497 kts 247°
2026-05-01 12:24 45.73752 -33.60254 38356 ft 497 kts 247°
2026-05-01 12:24 45.71548 -33.69646 38358 ft 497 kts 247°
2026-05-01 12:25 45.68230 -33.83713 38351 ft 497 kts 247°
2026-05-01 12:26 45.66006 -33.93091 38354 ft 497 kts 247°
2026-05-01 12:26 45.62664 -34.07111 38352 ft 496 kts 247°
2026-05-01 12:27 45.59306 -34.21102 38345 ft 496 kts 246°
2026-05-01 12:28 45.55941 -34.35033 38352 ft 497 kts 246°
2026-05-01 12:29 45.52554 -34.48975 38346 ft 494 kts 246°
2026-05-01 12:29 45.49166 -34.62846 38345 ft 493 kts 246°
2026-05-01 12:30 45.45763 -34.76693 38343 ft 491 kts 245°
2026-05-01 12:31 45.43492 -34.85878 38337 ft 490 kts 245°
2026-05-01 12:31 45.41220 -34.95029 38344 ft 490 kts 245°
2026-05-01 12:32 45.38962 -35.04098 38343 ft 490 kts 245°
2026-05-01 12:32 45.35530 -35.17804 38342 ft 489 kts 245°
2026-05-01 12:33 45.33249 -35.26869 38333 ft 489 kts 245°
2026-05-01 12:33 45.30960 -35.35924 38333 ft 489 kts 245°
2026-05-01 12:34 45.28654 -35.45013 38333 ft 488 kts 244°
2026-05-01 12:34 45.26344 -35.54075 38333 ft 487 kts 244°
2026-05-01 12:35 45.24033 -35.63117 38330 ft 487 kts 244°
2026-05-01 12:35 45.21713 -35.72160 38330 ft 487 kts 245°
2026-05-01 12:36 45.19389 -35.81181 38330 ft 485 kts 244°
2026-05-01 12:36 45.17088 -35.90083 38330 ft 483 kts 244°
2026-05-01 12:37 45.14767 -35.99023 38322 ft 483 kts 244°
2026-05-01 12:37 45.12441 -36.07945 38322 ft 483 kts 244°
2026-05-01 12:38 45.10114 -36.16845 38319 ft 481 kts 244°
2026-05-01 12:38 45.07780 -36.25730 38319 ft 480 kts 244°
2026-05-01 12:39 45.05448 -36.34575 38319 ft 480 kts 244°
2026-05-01 12:39 45.03126 -36.43350 38318 ft 480 kts 244°
2026-05-01 12:40 45.00783 -36.52177 38312 ft 478 kts 244°
2026-05-01 12:40 44.98440 -36.60969 38311 ft 478 kts 244°
2026-05-01 12:41 44.96087 -36.69764 38308 ft 478 kts 244°
2026-05-01 12:41 44.93731 -36.78539 38314 ft 478 kts 244°
2026-05-01 12:42 44.91371 -36.87298 38305 ft 478 kts 243°
2026-05-01 12:42 44.89016 -36.96002 38306 ft 478 kts 244°
2026-05-01 12:43 44.86640 -37.04756 38307 ft 477 kts 243°
2026-05-01 12:43 44.84549 -37.12434 38302 ft 477 kts 244°
2026-05-01 12:44 44.82175 -37.21121 38302 ft 477 kts 243°
2026-05-01 12:45 44.77382 -37.38559 38296 ft 477 kts 243°
2026-05-01 12:45 44.74977 -37.47257 38288 ft 477 kts 243°
2026-05-01 12:46 44.72566 -37.55956 38307 ft 477 kts 243°
2026-05-01 12:46 44.70146 -37.64655 38291 ft 477 kts 243°
2026-05-01 12:47 44.67718 -37.73352 38289 ft 479 kts 243°
2026-05-01 12:47 44.65274 -37.82069 38305 ft 479 kts 243°
2026-05-01 12:48 44.62840 -37.90720 38285 ft 479 kts 243°
2026-05-01 12:48 44.60386 -37.99413 38285 ft 479 kts 243°
2026-05-01 12:49 44.57927 -38.08094 38285 ft 479 kts 243°
2026-05-01 12:49 44.55460 -38.16773 38279 ft 479 kts 243°
2026-05-01 12:50 44.52986 -38.25451 38277 ft 479 kts 243°
2026-05-01 12:50 44.50503 -38.34125 38276 ft 479 kts 243°
2026-05-01 12:51 44.48016 -38.42782 38269 ft 479 kts 242°
2026-05-01 12:52 44.44278 -38.55737 38270 ft 479 kts 243°
2026-05-01 12:52 44.40516 -38.68713 38270 ft 479 kts 243°
2026-05-01 12:53 44.36740 -38.81667 38266 ft 479 kts 243°
2026-05-01 12:54 44.34215 -38.90293 38263 ft 480 kts 242°
2026-05-01 12:54 44.30426 -39.03182 38262 ft 480 kts 242°
2026-05-01 12:55 44.26608 -39.16099 38261 ft 479 kts 242°
2026-05-01 12:56 44.24058 -39.24693 38260 ft 479 kts 242°
2026-05-01 12:56 44.21504 -39.33267 38254 ft 478 kts 242°
2026-05-01 12:57 44.18956 -39.41797 38254 ft 478 kts 242°
2026-05-01 12:57 44.15105 -39.54636 38250 ft 478 kts 242°
2026-05-01 12:58 44.12543 -39.63137 38247 ft 477 kts 242°
2026-05-01 12:59 44.08677 -39.75923 38253 ft 477 kts 242°
2026-05-01 12:59 44.05243 -39.87213 38249 ft 477 kts 242°
2026-05-01 13:00 44.00941 -40.01299 38242 ft 476 kts 242°
2026-05-01 13:01 43.97273 -40.12474 38234 ft 475 kts 239°
2026-05-01 13:02 43.93036 -40.24847 38235 ft 475 kts 239°
2026-05-01 13:07 43.63362 -41.11605 38636 ft 475 kts 239°
2026-05-01 13:07 43.61931 -41.15726 38785 ft 474 kts 239°
2026-05-01 13:08 43.59074 -41.23938 38918 ft 475 kts 239°
2026-05-01 13:08 43.56225 -41.32099 39051 ft 476 kts 239°
2026-05-01 13:08 43.54794 -41.36191 39198 ft 473 kts 239°
2026-05-01 13:09 43.53340 -41.40337 39196 ft 475 kts 239°
2026-05-01 13:09 43.51920 -41.44381 39331 ft 473 kts 239°
2026-05-01 13:09 43.50483 -41.48465 39368 ft 475 kts 239°
2026-05-01 13:10 43.47600 -41.56643 39523 ft 474 kts 240°
2026-05-01 13:10 43.44713 -41.64810 39661 ft 473 kts 240°
2026-05-01 13:11 43.41817 -41.72979 39782 ft 473 kts 239°
2026-05-01 13:11 43.38941 -41.81064 39861 ft 473 kts 239°
2026-05-01 13:12 43.36033 -41.89215 39905 ft 474 kts 239°
2026-05-01 13:12 43.34581 -41.93277 40041 ft 473 kts 240°
2026-05-01 13:12 43.33124 -41.97345 40003 ft 475 kts 240°
2026-05-01 13:12 43.31670 -42.01402 40139 ft 472 kts 239°
2026-05-01 13:13 43.30214 -42.05455 40189 ft 473 kts 239°
2026-05-01 13:13 43.27298 -42.13553 40187 ft 474 kts 239°
2026-05-01 13:14 43.24367 -42.21666 40186 ft 474 kts 240°
2026-05-01 13:14 43.21433 -42.29772 40184 ft 474 kts 240°
2026-05-01 13:15 43.18498 -42.37856 40178 ft 473 kts 239°
2026-05-01 13:15 43.15556 -42.45936 40187 ft 474 kts 239°
2026-05-01 13:16 43.12621 -42.53967 40188 ft 474 kts 240°
2026-05-01 13:16 43.09664 -42.62038 40173 ft 474 kts 240°
2026-05-01 13:17 43.03721 -42.78188 40171 ft 475 kts 240°
2026-05-01 13:18 42.99277 -42.90203 40169 ft 474 kts 240°
2026-05-01 13:18 42.96294 -42.98240 40166 ft 474 kts 240°
2026-05-01 13:19 42.93305 -43.06272 40166 ft 474 kts 240°
2026-05-01 13:20 42.88818 -43.18283 40166 ft 473 kts 240°
2026-05-01 13:20 42.85826 -43.26267 40168 ft 473 kts 240°
2026-05-01 13:21 42.81317 -43.38251 40158 ft 473 kts 239°
2026-05-01 13:21 42.78304 -43.46231 40157 ft 473 kts 239°
2026-05-01 13:22 42.75304 -43.54157 40155 ft 474 kts 239°
2026-05-01 13:22 42.72277 -43.62134 40158 ft 474 kts 240°
2026-05-01 13:23 42.69240 -43.70110 40156 ft 474 kts 239°
2026-05-01 13:23 42.66225 -43.78006 40150 ft 473 kts 239°
2026-05-01 13:24 42.63190 -43.85935 40145 ft 473 kts 239°
2026-05-01 13:25 42.58621 -43.97826 40146 ft 473 kts 240°
2026-05-01 13:25 42.55574 -44.05731 40143 ft 473 kts 239°
2026-05-01 13:26 42.52518 -44.13637 40138 ft 473 kts 239°
2026-05-01 13:26 42.49477 -44.21482 40136 ft 473 kts 239°
2026-05-01 13:27 42.46411 -44.29372 40135 ft 473 kts 239°
2026-05-01 13:27 42.41799 -44.41195 40131 ft 473 kts 239°
2026-05-01 13:28 42.37178 -44.52994 40124 ft 473 kts 239°
2026-05-01 13:29 42.30997 -44.68706 40122 ft 474 kts 239°
2026-05-01 13:31 42.21693 -44.92194 40117 ft 474 kts 239°
2026-05-01 13:32 42.13865 -45.11803 40112 ft 474 kts 239°
2026-05-01 13:33 42.06037 -45.31286 40101 ft 474 kts 240°
2026-05-01 13:34 41.99736 -45.46877 40099 ft 474 kts 239°
2026-05-01 13:35 41.94998 -45.58544 40091 ft 474 kts 239°
2026-05-01 13:36 41.90243 -45.70208 40092 ft 474 kts 239°
2026-05-01 13:36 41.85501 -45.81792 40082 ft 474 kts 240°
2026-05-01 13:37 41.82322 -45.89531 40088 ft 473 kts 239°
2026-05-01 13:37 41.79143 -45.97255 40088 ft 473 kts 239°
2026-05-01 13:38 41.74355 -46.08847 40087 ft 473 kts 239°
2026-05-01 13:39 41.71158 -46.16561 40088 ft 473 kts 239°
2026-05-01 13:39 41.67961 -46.24255 40079 ft 473 kts 239°
2026-05-01 13:40 41.64760 -46.31939 40082 ft 473 kts 239°
2026-05-01 13:40 41.61569 -46.39577 40078 ft 473 kts 239°
2026-05-01 13:41 41.58351 -46.47261 40078 ft 473 kts 239°
2026-05-01 13:41 41.55131 -46.54931 40075 ft 473 kts 239°
2026-05-01 13:42 41.51929 -46.62538 40073 ft 472 kts 239°
2026-05-01 13:42 41.48705 -46.70179 40075 ft 472 kts 239°
2026-05-01 13:43 41.45477 -46.77808 40074 ft 471 kts 239°
2026-05-01 13:43 41.42245 -46.85427 40062 ft 471 kts 239°
2026-05-01 13:44 41.39014 -46.93026 40071 ft 471 kts 239°
2026-05-01 13:44 41.35783 -47.00605 40073 ft 471 kts 239°
2026-05-01 13:45 41.32566 -47.08132 40073 ft 471 kts 239°
2026-05-01 13:45 41.29322 -47.15704 40073 ft 470 kts 239°
2026-05-01 13:46 41.26071 -47.23271 40071 ft 470 kts 239°
2026-05-01 13:46 41.23367 -47.29552 40071 ft 470 kts 239°
2026-05-01 13:47 41.19580 -47.38325 40070 ft 471 kts 239°
2026-05-01 13:47 41.16868 -47.44593 40073 ft 471 kts 239°
2026-05-01 13:48 41.13594 -47.52140 40075 ft 471 kts 239°
2026-05-01 13:48 41.10319 -47.59671 40075 ft 471 kts 239°
2026-05-01 13:49 41.07033 -47.67209 40072 ft 471 kts 239°
2026-05-01 13:49 41.03748 -47.74726 40073 ft 471 kts 239°
2026-05-01 13:50 41.00457 -47.82239 40075 ft 471 kts 238°
2026-05-01 13:50 40.97163 -47.89741 40071 ft 471 kts 239°
2026-05-01 13:51 40.93884 -47.97190 40076 ft 471 kts 238°
2026-05-01 13:51 40.90575 -48.04688 40077 ft 472 kts 238°
2026-05-01 13:52 40.87262 -48.12177 40067 ft 471 kts 238°
2026-05-01 13:52 40.83944 -48.19658 40075 ft 471 kts 238°
2026-05-01 13:53 40.80626 -48.27122 40075 ft 471 kts 238°
2026-05-01 13:53 40.75654 -48.38271 40073 ft 471 kts 238°
2026-05-01 13:54 40.72325 -48.45714 40084 ft 471 kts 238°
2026-05-01 13:54 40.68992 -48.53149 40076 ft 470 kts 238°
2026-05-01 13:55 40.65671 -48.60538 40085 ft 471 kts 238°
2026-05-01 13:55 40.62327 -48.67959 40080 ft 470 kts 238°
2026-05-01 13:56 40.58983 -48.75363 40082 ft 470 kts 238°
2026-05-01 13:56 40.55630 -48.82768 40081 ft 470 kts 238°
2026-05-01 13:57 40.52276 -48.90160 40089 ft 470 kts 238°
2026-05-01 13:57 40.48937 -48.97499 40091 ft 470 kts 238°
2026-05-01 13:58 40.45578 -49.04864 40091 ft 470 kts 238°
2026-05-01 13:58 40.42213 -49.12224 40084 ft 470 kts 238°
2026-05-01 13:59 40.38838 -49.19589 40084 ft 469 kts 238°
2026-05-01 13:59 40.35488 -49.26887 40086 ft 469 kts 238°
2026-05-01 14:00 40.32114 -49.34216 40082 ft 469 kts 238°
2026-05-01 14:00 40.28736 -49.41534 40089 ft 469 kts 238°
2026-05-01 14:01 40.25363 -49.48826 40086 ft 469 kts 238°
2026-05-01 14:01 40.21997 -49.56086 40084 ft 469 kts 238°
2026-05-01 14:02 40.18591 -49.63414 40086 ft 468 kts 238°
2026-05-01 14:02 40.15222 -49.70646 40087 ft 468 kts 238°
2026-05-01 14:03 40.11832 -49.77908 40085 ft 467 kts 238°
2026-05-01 14:03 40.08440 -49.85155 40085 ft 467 kts 238°
2026-05-01 14:04 40.05047 -49.92389 40086 ft 466 kts 238°
2026-05-01 14:04 40.01609 -49.99510 40093 ft 467 kts 233°
2026-05-01 14:05 39.97318 -50.05858 40077 ft 468 kts 226°
2026-05-01 14:05 39.92715 -50.11914 40082 ft 471 kts 225°
2026-05-01 14:06 39.88073 -50.17911 40080 ft 472 kts 225°
2026-05-01 14:06 39.83423 -50.23935 40074 ft 471 kts 225°
2026-05-01 14:07 39.78781 -50.29966 40075 ft 471 kts 225°
2026-05-01 14:08 39.71828 -50.38994 40069 ft 471 kts 225°
2026-05-01 14:08 39.67165 -50.45029 40075 ft 471 kts 225°
2026-05-01 14:09 39.62525 -50.51023 40072 ft 470 kts 225°
2026-05-01 14:09 39.57915 -50.56966 40066 ft 470 kts 226°
2026-05-01 14:10 39.53246 -50.62973 40069 ft 470 kts 226°
2026-05-01 14:10 39.48629 -50.68902 40067 ft 470 kts 226°
2026-05-01 14:11 39.43981 -50.74859 40064 ft 470 kts 226°
2026-05-01 14:11 39.36995 -50.83790 40064 ft 470 kts 225°
2026-05-01 14:12 39.32367 -50.89692 40058 ft 470 kts 226°
2026-05-01 14:12 39.27707 -50.95621 40061 ft 469 kts 226°
2026-05-01 14:13 39.23836 -51.00538 40061 ft 469 kts 226°
2026-05-01 14:13 39.18393 -51.07440 40055 ft 469 kts 226°
2026-05-01 14:14 39.13738 -51.13328 40056 ft 468 kts 226°
2026-05-01 14:14 39.09116 -51.19165 40069 ft 468 kts 225°
2026-05-01 14:15 39.04473 -51.25015 40061 ft 466 kts 225°
2026-05-01 14:15 38.99845 -51.30835 40061 ft 464 kts 225°
2026-05-01 14:16 38.95226 -51.36636 40061 ft 464 kts 225°
2026-05-01 14:16 38.90607 -51.42423 40058 ft 462 kts 225°
2026-05-01 14:17 38.86009 -51.48173 40053 ft 461 kts 225°
2026-05-01 14:17 38.81411 -51.53913 40048 ft 461 kts 225°
2026-05-01 14:18 38.76838 -51.59611 40054 ft 461 kts 225°
2026-05-01 14:18 38.73013 -51.64368 40053 ft 461 kts 225°
2026-05-01 14:19 38.67624 -51.71059 40046 ft 461 kts 225°
2026-05-01 14:19 38.63048 -51.76728 40051 ft 461 kts 225°
2026-05-01 14:20 38.56134 -51.85273 40053 ft 461 kts 225°
2026-05-01 14:21 38.51532 -51.90948 40051 ft 461 kts 225°
2026-05-01 14:21 38.46907 -51.96637 40048 ft 461 kts 225°
2026-05-01 14:22 38.40002 -52.05116 40046 ft 461 kts 225°
2026-05-01 14:22 38.35374 -52.10787 40045 ft 460 kts 225°
2026-05-01 14:23 38.30747 -52.16444 40045 ft 461 kts 225°
2026-05-01 14:23 38.26117 -52.22094 40045 ft 460 kts 225°
2026-05-01 14:24 38.21518 -52.27696 40041 ft 460 kts 225°
2026-05-01 14:24 38.16886 -52.33328 40043 ft 460 kts 225°
2026-05-01 14:25 38.12286 -52.38911 40045 ft 460 kts 225°
2026-05-01 14:25 38.07658 -52.44517 40037 ft 459 kts 225°
2026-05-01 14:26 38.00708 -52.52917 40036 ft 459 kts 225°
2026-05-01 14:27 37.96104 -52.58467 40034 ft 458 kts 225°
2026-05-01 14:27 37.91489 -52.64023 40019 ft 457 kts 225°
2026-05-01 14:28 37.84554 -52.72351 40031 ft 457 kts 225°
2026-05-01 14:28 37.79940 -52.77880 40035 ft 457 kts 225°
2026-05-01 14:29 37.75356 -52.83361 40029 ft 455 kts 225°
2026-05-01 14:30 37.66147 -52.94345 40029 ft 454 kts 225°
2026-05-01 14:31 37.59284 -53.02503 40021 ft 453 kts 225°
2026-05-01 14:31 37.54696 -53.07945 40024 ft 451 kts 225°
2026-05-01 14:32 37.50110 -53.13377 40026 ft 451 kts 225°
2026-05-01 14:32 37.45558 -53.18759 40027 ft 450 kts 225°
2026-05-01 14:33 37.40980 -53.24164 40027 ft 450 kts 225°
2026-05-01 14:33 37.37178 -53.28643 40022 ft 450 kts 224°
2026-05-01 14:34 37.31867 -53.34889 40022 ft 449 kts 224°
2026-05-01 14:34 37.28072 -53.39345 40021 ft 449 kts 224°
2026-05-01 14:35 37.23501 -53.44705 40010 ft 448 kts 224°
2026-05-01 14:35 37.18937 -53.50048 40021 ft 448 kts 224°
2026-05-01 14:36 37.14373 -53.55382 40020 ft 448 kts 224°
2026-05-01 14:36 37.09836 -53.60673 40012 ft 448 kts 224°
2026-05-01 14:37 37.05270 -53.65989 40018 ft 448 kts 224°
2026-05-01 14:37 37.00701 -53.71298 40021 ft 448 kts 224°
2026-05-01 14:38 36.96128 -53.76604 40004 ft 448 kts 224°
2026-05-01 14:38 36.91565 -53.81889 40015 ft 447 kts 224°
2026-05-01 14:39 36.87005 -53.87162 40018 ft 447 kts 224°
2026-05-01 14:39 36.82447 -53.92423 40020 ft 447 kts 224°
2026-05-01 14:40 36.77878 -53.97689 40016 ft 447 kts 224°
2026-05-01 14:40 36.73307 -54.02947 40011 ft 447 kts 224°
2026-05-01 14:41 36.68728 -54.08206 40000 ft 447 kts 224°
2026-05-01 14:41 36.64153 -54.13451 40012 ft 447 kts 224°
2026-05-01 14:42 36.59607 -54.18654 40007 ft 447 kts 224°
2026-05-01 14:42 36.55025 -54.23890 40008 ft 447 kts 224°
2026-05-01 14:43 36.50442 -54.29118 39995 ft 448 kts 223°
2026-05-01 14:43 36.45842 -54.34356 40012 ft 448 kts 223°
2026-05-01 14:44 36.41268 -54.39556 40013 ft 448 kts 223°
2026-05-01 14:44 36.34365 -54.47386 40004 ft 448 kts 223°
2026-05-01 14:45 36.27451 -54.55212 40001 ft 449 kts 223°
2026-05-01 14:46 36.22832 -54.60427 40004 ft 449 kts 223°
2026-05-01 14:46 36.15935 -54.68198 39998 ft 449 kts 223°
2026-05-01 14:47 36.11305 -54.73405 39999 ft 449 kts 223°
2026-05-01 14:48 36.04366 -54.81193 39991 ft 449 kts 223°
2026-05-01 14:48 35.97413 -54.88977 39993 ft 449 kts 223°
2026-05-01 14:49 35.88162 -54.99303 39991 ft 449 kts 223°
2026-05-01 14:50 35.78874 -55.09638 39985 ft 450 kts 223°
2026-05-01 14:51 35.71892 -55.17383 39988 ft 450 kts 223°
2026-05-01 14:52 35.64922 -55.25095 39975 ft 450 kts 223°
2026-05-01 14:53 35.57915 -55.32831 39986 ft 451 kts 223°
2026-05-01 14:53 35.53260 -55.37959 39988 ft 451 kts 223°
2026-05-01 14:54 35.48574 -55.43113 39979 ft 451 kts 223°
2026-05-01 14:54 35.43879 -55.48269 39985 ft 452 kts 223°
2026-05-01 14:55 35.39193 -55.53406 39989 ft 452 kts 223°
2026-05-01 14:55 35.34528 -55.58513 39985 ft 453 kts 223°
2026-05-01 14:56 35.29813 -55.63665 39983 ft 453 kts 223°
2026-05-01 14:56 35.25109 -55.68796 39982 ft 453 kts 223°
2026-05-01 14:57 35.20402 -55.73922 39982 ft 453 kts 223°
2026-05-01 14:57 35.13359 -55.81579 39979 ft 453 kts 223°
2026-05-01 14:58 35.08612 -55.86727 39979 ft 453 kts 223°
2026-05-01 14:58 35.03925 -55.91805 39960 ft 453 kts 223°
2026-05-01 14:59 34.99201 -55.96913 39978 ft 454 kts 223°
2026-05-01 14:59 34.94468 -56.02023 39981 ft 454 kts 223°
2026-05-01 15:00 34.87398 -56.09639 39965 ft 454 kts 223°
2026-05-01 15:01 34.82655 -56.14739 39978 ft 454 kts 223°
2026-05-01 15:01 34.77907 -56.19837 39976 ft 454 kts 223°
2026-05-01 15:02 34.73162 -56.24923 39977 ft 454 kts 223°
2026-05-01 15:02 34.68417 -56.30000 39973 ft 454 kts 223°
2026-05-01 15:03 34.63704 -56.35036 39976 ft 454 kts 223°
2026-05-01 15:03 34.58954 -56.40103 39976 ft 454 kts 223°
2026-05-01 15:04 34.54207 -56.45158 39980 ft 454 kts 223°
2026-05-01 15:04 34.49455 -56.50210 39981 ft 453 kts 223°
2026-05-01 15:05 34.44714 -56.55244 39979 ft 453 kts 223°
2026-05-01 15:05 34.39960 -56.60285 39971 ft 454 kts 222°
2026-05-01 15:06 34.35239 -56.65282 39977 ft 454 kts 222°
2026-05-01 15:06 34.30473 -56.70318 39976 ft 455 kts 222°
2026-05-01 15:07 34.25706 -56.75347 39977 ft 454 kts 222°
2026-05-01 15:07 34.20929 -56.80379 39974 ft 454 kts 222°
2026-05-01 15:08 34.16162 -56.85393 39981 ft 454 kts 222°
2026-05-01 15:08 34.11393 -56.90402 39980 ft 454 kts 222°
2026-05-01 15:09 34.06652 -56.95374 39977 ft 455 kts 222°
2026-05-01 15:09 34.01871 -57.00378 39978 ft 454 kts 222°
2026-05-01 15:10 33.97088 -57.05377 39980 ft 454 kts 222°
2026-05-01 15:10 33.89930 -57.12845 39986 ft 454 kts 222°
2026-05-01 15:11 33.82801 -57.20262 39980 ft 453 kts 223°
2026-05-01 15:12 33.78036 -57.25213 39981 ft 453 kts 223°
2026-05-01 15:12 33.70876 -57.32640 39977 ft 453 kts 223°
2026-05-01 15:14 33.58974 -57.44943 39980 ft 452 kts 222°
2026-05-01 15:14 33.51799 -57.52338 39975 ft 452 kts 223°
2026-05-01 15:15 33.42272 -57.62130 39980 ft 452 kts 223°
2026-05-01 15:16 33.32748 -57.71891 39978 ft 451 kts 223°
2026-05-01 15:18 33.20808 -57.84087 39968 ft 451 kts 223°
2026-05-01 15:19 33.11252 -57.93813 39986 ft 451 kts 223°
2026-05-01 15:19 33.04091 -58.01085 39984 ft 451 kts 223°
2026-05-01 15:20 32.96951 -58.08318 39985 ft 451 kts 223°
2026-05-01 15:21 32.92172 -58.13150 39988 ft 451 kts 223°
2026-05-01 15:21 32.87391 -58.17978 39988 ft 450 kts 223°
2026-05-01 15:22 32.81028 -58.24389 39984 ft 450 kts 224°
2026-05-01 15:22 32.76246 -58.29202 39986 ft 450 kts 223°
2026-05-01 15:23 32.71466 -58.34007 39990 ft 450 kts 223°
2026-05-01 15:23 32.66681 -58.38808 39978 ft 450 kts 224°
2026-05-01 15:24 32.61903 -58.43594 39987 ft 449 kts 224°
2026-05-01 15:24 32.57152 -58.48348 39994 ft 449 kts 224°
2026-05-01 15:25 32.52371 -58.53125 39990 ft 449 kts 224°
2026-05-01 15:25 32.47589 -58.57895 39986 ft 449 kts 224°
2026-05-01 15:26 32.42811 -58.62654 39988 ft 448 kts 224°
2026-05-01 15:26 32.38058 -58.67383 39990 ft 448 kts 224°
2026-05-01 15:27 32.33280 -58.72129 39993 ft 448 kts 224°
2026-05-01 15:28 32.26109 -58.79240 39994 ft 449 kts 224°
2026-05-01 15:28 32.21344 -58.83957 39993 ft 449 kts 224°
2026-05-01 15:29 32.14159 -58.91057 39993 ft 449 kts 224°
2026-05-01 15:30 32.04569 -59.00509 39999 ft 449 kts 224°
2026-05-01 15:31 31.90192 -59.14628 39998 ft 449 kts 224°
2026-05-01 15:32 31.80611 -59.24005 39998 ft 449 kts 224°
2026-05-01 15:34 31.66181 -59.38077 40001 ft 449 kts 224°